Overview Statistics Trail Chart Weather Telemetry Raw packets
 

This is the latest recevied weather packets stored in our database for station/object R1ZCU-14. If no packets are shown the sender has not sent any weather packets the latest 10 day(s).

<< 16 17 18 19 20 21 22 >>
Time Temp. Humidity Pressure Rain* Wind** Luminosity Snow
1788096482 16.11° C 64% 1005.7 hPa - - - -
1788095882 16.11° C 64% 1005.8 hPa - - - -
1788095281 16.67° C 65% 1006 hPa - - - -
1788094681 16.67° C 71% 1006 hPa - - - -
1788094080 16.67° C 70% 1005.9 hPa - - - -
1788093480 16.67° C 70% 1006.1 hPa - - - -
1788092879 16.67° C 68% 1006.1 hPa - - - -
1788092279 16.67° C 66% 1006.2 hPa - - - -
1788091678 17.22° C 64% 1006.4 hPa - - - -
1788091078 17.22° C 63% 1006.4 hPa - - - -
1788090477 17.22° C 60% 1006.6 hPa - - - -
1788089877 17.78° C 55% 1006.7 hPa - - - -
1788089276 17.78° C 55% 1006.8 hPa - - - -
1788088676 17.22° C 56% 1006.9 hPa - - - -
1788088075 16.67° C 56% 1006.9 hPa - - - -
1788087475 16.11° C 54% 1007 hPa - - - -
1788086874 16.11° C 54% 1007 hPa - - - -
1788086274 16.11° C 52% 1007.2 hPa - - - -
1788085673 16.11° C 55% 1007.2 hPa - - - -
1788085073 16.11° C 57% 1007.4 hPa - - - -
1788084472 16.11° C 58% 1007.3 hPa - - - -
1788083872 16.11° C 57% 1007.4 hPa - - - -
1788083271 16.11° C 58% 1007.5 hPa - - - -
1788082671 16.11° C 61% 1007.6 hPa - - - -
1788082070 16.11° C 63% 1007.8 hPa - - - -

* Rain since midnight (hover to see other rain measurements)
** Current wind speed in m/s (hover to see current wind gust speed)